Wind_Speed
19 18 20 21 16 13 13 14 11 9 7 5 1 5 8 9 11 10 11 7 5 10 12 12 8 8 11 15 18 18 15 17 17 16 15 13 11 7 6 4 4 5 6 7 7 7 8 10 10
22 18 19 20 16 13 14 14 12 8 5 3 2 6 6 6 7 8 11 7 8 12 15 16 14 15 13 15 20 19 17 19 17 16 14 11 7 5 5 4 4 5 5 7 8 8 8 10 12
23 19 19 18 16 13 15 14 14 9 5 3 5 6 6 5 5 6 9 8 9 15 17 18 17 15 19 21 17 17 15 15 15 14 12 9 5 5 5 4 4 6 9 8 9 10 11 12 13
24 21 19 16 15 13 15 14 13 11 7 5 7 8 7 4 3 6 7 7 8 15 15 18 16 18 19 19 16 16 14 13 13 12 10 7 4 4 6 5 6 8 9 9 10 11 11 11 12
25 23 20 17 13 14 14 13 14 12 8 6 9 10 8 5 3 7 6 6 8 11 14 17 17 16 18 18 16 14 11 12 12 11 9 6 5 6 7 6 6 7 8 9 10 10 11 12 13
24 22 22 19 16 13 12 12 14 11 9 7 10 12 10 7 5 7 7 5 8 10 13 14 15 16 19 19 16 14 11 8 9 10 8 6 5 7 7 5 5 7 8 9 9 10 11 11 13
23 21 25 22 17 13 12 13 12 12 10 8 10 13 12 10 9 9 11 7 6 12 14 12 12 13 15 16 16 14 12 10 12 11 8 7 7 7 7 6 6 6 7 9 9 10 10 11 12
26 23 23 23 20 15 14 14 13 12 11 10 11 14 14 12 10 10 14 13 8 11 13 13 12 13 13 14 15 13 12 14 12 9 9 9 7 7 8 7 6 6 8 9 9 11 11 11 11
32 26 24 24 22 19 17 16 16 15 13 13 14 16 15 13 11 11 15 17 15 11 13 12 9 9 11 11 12 12 11 12 9 10 11 9 8 8 7 6 6 7 8 10 11 12 12 12 13
30 29 26 25 27 20 19 17 17 17 14 15 18 17 16 15 13 14 14 15 15 16 13 13 10 9 8 9 12 14 13 13 13 12 9 7 8 7 5 6 7 8 8 9 10 11 12 14 15
28 30 24 24 24 23 21 19 21 18 16 20 20 18 17 16 15 16 14 13 15 15 15 14 14 12 10 10 12 13 13 13 12 11 9 10 7 5 3 3 6 7 8 8 10 11 13 14 16
23 28 28 28 26 24 24 23 22 20 23 21 21 19 17 16 16 16 17 17 16 15 16 16 15 15 13 13 14 15 13 12 11 10 9 7 5 2 1 4 7 9 10 11 12 13 15 16 18
23 22 28 29 26 29 27 26 25 24 24 23 23 22 20 16 15 15 16 16 17 19 19 19 18 16 17 16 15 14 13 12 11 11 9 7 4 3 5 7 9 10 11 12 13 14 16 18 21
33 31 27 33 30 27 32 30 31 27 27 26 27 24 22 20 18 17 18 18 18 19 20 21 20 18 15 15 15 14 13 12 12 11 9 7 6 6 9 11 12 12 13 14 16 17 19 21 23
30 32 30 25 30 32 33 33 31 30 30 29 31 27 25 22 20 20 20 20 21 20 20 20 20 19 16 14 14 14 14 14 14 13 10 8 9 10 12 14 15 14 15 16 18 19 21 22 24
37 39 37 32 34 26 32 31 36 33 32 31 33 28 27 25 25 23 21 20 20 20 21 19 20 19 20 18 17 16 15 16 15 13 11 12 13 14 16 16 16 16 17 18 20 22 23 24 26
44 42 34 35 31 31 23 14 35 34 32 34 34 31 30 28 25 23 22 21 21 21 19 20 19 18 18 19 19 17 16 16 15 14 14 14 16 17 18 18 18 19 19 21 22 23 24 26 29
44 37 30 27 21 21 26 15 21 35 35 36 36 36 34 30 29 29 27 26 25 23 21 20 19 19 19 18 17 17 17 17 17 17 17 17 19 18 19 20 21 22 22 24 25 25 24 26 29
35 34 33 34 29 30 26 27 22 38 41 42 41 39 36 33 36 33 29 28 26 24 23 23 23 23 22 21 20 20 20 19 20 20 19 19 19 21 22 23 24 26 25 26 27 28 28 27 29
42 42 44 37 37 39 31 29 29 35 45 42 45 43 40 40 38 34 32 30 28 29 28 26 27 26 26 25 25 24 23 23 22 21 20 20 23 25 25 26 27 28 28 29 29 30 31 32 32
44 45 40 34 37 40 33 32 35 32 45 44 45 44 44 42 40 38 36 34 33 31 31 30 30 29 28 28 27 25 24 24 23 23 22 25 27 26 26 27 28 29 31 31 32 33 33 34 35
43 42 41 38 38 42 39 42 32 33 26 43 46 47 46 45 42 40 37 36 34 34 35 33 33 32 31 31 29 27 26 25 26 25 26 28 28 28 28 29 30 31 32 33 35 36 37 38 39
44 43 40 39 40 42 44 49 32 31 32 29 42 51 47 46 45 41 41 40 39 39 36 36 36 33 33 33 32 29 29 28 28 29 28 29 30 31 31 32 33 34 35 37 38 39 40 42 43
47 45 43 42 42 46 45 47 48 32 28 28 26 52 50 47 47 45 46 46 42 41 40 39 38 38 36 35 34 33 32 31 30 31 31 32 32 33 34 35 36 36 38 39 42 42 44 45 46
52 49 49 48 49 50 47 49 48 36 30 33 29 40 54 50 50 50 49 47 45 43 43 43 41 40 39 38 37 36 34 34 33 33 33 34 35 35 36 38 39 40 41 42 44 45 46 46 47
54 53 56 54 52 47 47 49 44 36 32 32 32 31 50 53 51 52 50 48 45 46 45 46 43 42 42 42 41 39 38 37 37 36 37 37 37 38 39 40 41 43 44 45 47 48 48 47 48
59 57 51 55 53 55 51 48 47 38 34 32 35 30 36 52 54 53 52 49 46 47 47 47 47 45 46 45 45 43 42 41 40 39 39 39 39 40 41 42 43 45 46 48 49 48 49 50 49
56 52 53 54 57 59 52 50 46 47 43 37 39 35 33 45 55 54 52 51 49 49 49 49 48 47 48 47 46 46 46 45 43 41 42 42 41 42 44 45 46 48 49 50 49 49 48 47 51
57 59 55 55 51 55 53 51 47 43 45 42 34 37 38 35 50 53 55 53 52 52 51 49 49 49 49 49 49 50 48 48 46 44 44 44 44 45 46 47 49 51 51 51 48 47 47 50 54
52 52 53 51 57 54 53 46 49 49 50 46 48 50 48 41 44 50 52 52 53 52 51 51 52 52 50 51 51 51 50 48 47 47 46 46 46 47 49 50 52 53 52 50 46 46 48 51 56
Wind_Direction
215 222 216 214 220 229 253 266 273 274 286 293 316 94 90 73 59 58 47 77 142 163 159 152 168 157 148 134 136 135 124 135 132 132 131 127 133 126 104 60 31 23 27 28 41 44 37 28 30
217 218 216 213 212 225 254 263 268 269 269 271 174 144 104 82 52 53 50 59 123 154 149 147 142 140 146 147 141 132 135 132 141 136 136 133 133 121 92 54 27 39 46 55 50 41 38 34 31
220 219 217 212 213 223 251 262 263 267 251 240 173 152 133 102 64 64 54 55 112 141 144 146 149 152 149 154 156 146 147 148 148 145 139 124 130 122 82 57 42 46 48 40 37 39 41 37 35
218 219 216 213 222 229 244 258 262 258 253 226 187 169 157 121 89 89 61 62 116 139 143 152 162 157 147 154 159 156 153 156 157 148 139 138 143 112 80 63 46 37 38 41 42 42 39 33 28
214 219 218 215 225 233 236 248 256 257 250 224 192 182 171 149 147 122 68 62 106 139 141 155 157 160 160 158 159 165 165 170 165 150 140 124 124 97 86 69 48 42 45 46 44 39 30 24 25
214 219 227 228 230 229 237 239 250 255 255 243 202 190 178 169 169 150 101 76 109 132 145 163 172 182 181 170 173 182 183 176 165 153 142 151 129 107 89 72 55 53 52 45 34 27 29 26 25
221 214 228 230 234 230 231 239 250 253 252 246 213 196 190 187 181 187 139 94 117 140 148 158 179 183 181 184 182 190 192 189 178 166 155 149 132 113 102 87 76 50 35 29 29 33 30 24 18
222 222 223 229 234 234 231 238 242 244 248 246 216 200 194 198 190 200 163 134 109 143 147 154 167 172 180 183 186 189 195 190 180 168 155 148 133 121 106 95 66 43 28 23 21 22 18 13 6
223 229 224 227 233 226 226 228 237 233 235 244 228 210 199 199 195 194 175 155 150 146 141 145 160 171 183 189 188 188 193 180 165 155 153 150 138 117 101 79 57 42 28 16 11 7 5 2 360
231 220 225 230 237 234 225 232 239 232 231 233 226 213 196 193 190 186 188 179 174 161 164 158 169 184 196 190 182 174 169 158 154 159 155 138 120 96 74 47 31 21 14 9 4 1 358 356 351
225 216 214 229 238 241 243 232 235 234 229 226 225 213 199 192 186 190 178 201 190 182 177 178 186 193 189 179 169 171 172 171 166 160 148 140 130 121 93 21 2 1 358 357 356 354 350 345 341
230 231 218 230 237 244 245 237 238 230 229 226 220 213 206 205 192 195 187 185 192 188 185 189 200 194 187 181 177 176 178 180 172 164 158 156 161 165 307 338 338 341 344 344 342 342 342 337 333
235 234 234 233 240 232 249 231 231 234 232 227 219 210 205 200 209 196 193 192 195 194 192 195 192 200 188 184 184 184 185 178 175 170 175 185 205 261 300 318 325 328 328 330 332 335 335 335 331
235 243 244 238 235 235 241 239 224 231 234 225 224 216 213 203 205 204 196 196 197 205 200 198 191 194 206 195 189 188 185 186 182 192 196 210 241 274 297 306 309 312 318 328 330 330 331 330 327
230 232 234 242 245 234 234 241 224 225 230 223 228 217 216 212 206 216 211 206 205 204 211 211 202 193 202 213 206 198 196 197 194 199 220 238 259 277 290 297 302 309 315 319 323 324 323 324 322
226 234 237 241 243 239 230 230 219 219 226 224 228 223 224 212 211 213 216 219 217 213 212 218 219 204 199 199 208 212 206 201 205 217 232 250 269 281 287 292 300 307 310 315 318 317 319 320 319
232 233 239 246 252 235 234 227 233 216 229 226 226 226 226 222 217 217 217 216 215 216 215 219 223 224 215 208 207 209 213 215 224 231 242 259 272 280 286 291 294 299 305 309 309 311 315 317 317
240 245 246 246 235 244 243 240 246 216 225 231 228 229 227 224 222 218 216 217 218 218 217 220 225 227 226 228 220 217 219 227 238 248 260 268 272 279 283 287 292 297 300 303 303 304 306 310 311
234 235 235 237 250 257 247 240 241 224 217 229 228 229 228 225 225 223 221 224 225 224 223 224 226 228 227 223 222 226 232 237 245 254 259 266 275 280 281 287 291 292 296 297 300 301 300 300 304
233 233 245 251 253 256 253 243 233 241 214 225 228 227 225 227 228 227 226 224 225 229 227 227 228 228 226 225 231 235 241 247 249 255 262 272 274 276 284 286 288 290 292 294 296 297 299 300 301
234 237 244 248 248 249 249 243 236 237 227 221 231 230 230 231 231 230 229 230 228 229 231 228 230 230 233 235 239 245 249 251 255 261 269 271 275 279 282 284 286 288 291 293 293 293 294 295 298
235 237 241 245 243 247 255 256 241 234 238 236 229 234 233 233 233 234 235 236 237 234 235 235 235 234 239 244 247 247 251 257 264 269 271 276 278 279 281 282 284 288 288 289 290 292 294 296 298
234 234 234 242 246 248 249 257 244 246 246 257 246 236 234 236 235 236 237 236 237 239 236 239 242 241 243 247 249 250 253 260 264 270 275 275 276 277 278 280 283 285 287 290 291 293 295 297 297
226 232 234 238 241 245 248 256 246 250 259 262 260 237 237 236 239 237 237 237 238 240 240 241 242 243 245 247 248 251 254 260 265 270 273 275 275 277 279 282 284 286 288 289 292 295 296 296 295
226 230 231 234 232 246 248 249 252 259 256 261 265 246 240 237 237 238 240 241 241 242 243 243 244 246 250 250 251 256 260 264 268 272 276 277 277 278 280 282 284 287 289 291 293 294 294 294 294
226 229 230 232 235 241 246 247 256 267 270 264 264 259 246 243 241 241 242 244 244 246 247 248 249 249 253 255 256 257 261 265 269 271 274 276 279 280 281 283 285 287 289 291 291 291 291 291 293
227 227 234 235 234 239 238 246 254 263 264 267 261 257 250 245 243 244 243 243 243 247 249 250 251 250 252 254 256 258 262 264 267 270 273 276 278 279 281 282 284 286 288 289 290 289 290 292 295
235 236 236 235 237 238 234 238 243 249 267 269 261 267 260 246 240 242 243 243 244 244 247 248 249 251 253 256 259 261 262 265 267 269 273 274 276 277 279 282 284 285 286 287 288 287 289 294 299
238 240 240 239 235 239 239 236 241 244 249 260 259 263 270 257 237 237 242 242 242 243 246 249 251 251 252 253 256 259 262 265 269 272 273 275 276 277 279 280 282 284 285 285 285 285 291 297 303
242 242 244 241 239 242 242 231 240 243 247 253 257 260 268 269 241 236 239 242 244 244 245 248 250 253 254 256 257 259 262 265 269 270 271 273 274 276 278 279 281 282 282 282 283 287 294 300 306
Height
5861 5863 5866 5870 5876 5876 5877 5879 5880 5880 5879 5878 5878 5878 5878 5878 5878 5878 5874 5872 5873 5874 5876 5877 5879 5881 5882 5883 5886 5889 5891 5893 5894 5895 5896 5897 5897 5898 5899 5899 5899 5899 5899 5899 5899 5899 5898 5897 5896
5859 5862 5865 5867 5872 5874 5876 5877 5878 5878 5878 5877 5878 5878 5878 5878 5877 5876 5874 5874 5873 5874 5876 5877 5880 5883 5883 5885 5888 5889 5892 5893 5895 5895 5896 5897 5899 5899 5899 5899 5899 5899 5900 5900 5899 5899 5899 5898 5897
5858 5860 5864 5865 5869 5871 5873 5875 5876 5876 5876 5876 5877 5878 5878 5878 5878 5876 5875 5874 5874 5875 5876 5878 5880 5883 5884 5886 5889 5891 5893 5894 5895 5895 5897 5898 5899 5899 5900 5900 5899 5900 5900 5900 5900 5900 5899 5899 5898
5856 5859 5863 5865 5867 5870 5872 5874 5875 5875 5874 5874 5876 5877 5878 5878 5878 5876 5875 5875 5875 5875 5877 5879 5882 5883 5885 5887 5890 5892 5893 5894 5895 5896 5897 5898 5899 5900 5900 5900 5900 5901 5901 5901 5901 5900 5899 5899 5898
5853 5857 5861 5863 5866 5867 5871 5872 5873 5874 5874 5873 5875 5876 5878 5878 5879 5876 5876 5877 5876 5877 5878 5880 5884 5886 5887 5888 5890 5892 5893 5894 5895 5896 5898 5898 5900 5900 5900 5901 5901 5901 5901 5901 5902 5901 5901 5900 5899
5850 5855 5860 5862 5864 5866 5868 5869 5871 5872 5872 5873 5875 5875 5876 5877 5878 5877 5877 5876 5877 5878 5879 5881 5883 5886 5887 5888 5890 5891 5893 5894 5896 5897 5897 5899 5900 5900 5902 5901 5902 5902 5902 5902 5902 5902 5902 5901 5900
5848 5851 5858 5860 5864 5865 5867 5868 5869 5870 5871 5872 5874 5875 5876 5876 5877 5877 5876 5878 5878 5879 5880 5882 5884 5886 5887 5888 5889 5891 5893 5894 5895 5896 5898 5900 5900 5901 5902 5903 5903 5903 5903 5903 5903 5903 5901 5901 5899
5846 5849 5854 5857 5860 5862 5865 5867 5867 5868 5870 5872 5873 5874 5874 5876 5876 5878 5877 5878 5881 5881 5881 5882 5884 5886 5887 5887 5889 5890 5893 5894 5895 5896 5898 5899 5901 5902 5903 5904 5904 5904 5903 5903 5903 5902 5901 5900 5899
5841 5845 5849 5854 5855 5859 5861 5863 5864 5866 5868 5871 5872 5872 5872 5874 5875 5878 5878 5877 5880 5882 5881 5883 5886 5887 5889 5888 5889 5891 5893 5895 5897 5898 5899 5900 5901 5903 5903 5904 5905 5904 5903 5903 5902 5901 5901 5900 5898
5836 5840 5845 5850 5852 5854 5858 5861 5862 5864 5866 5868 5870 5871 5870 5872 5874 5876 5879 5879 5880 5880 5883 5883 5887 5888 5890 5890 5889 5890 5893 5894 5896 5899 5900 5902 5903 5904 5905 5905 5905 5905 5904 5903 5902 5901 5899 5898 5896
5835 5837 5842 5845 5849 5851 5856 5858 5860 5863 5864 5864 5868 5869 5869 5870 5871 5875 5876 5880 5880 5881 5882 5884 5886 5888 5889 5890 5891 5893 5893 5895 5897 5898 5900 5901 5902 5903 5904 5904 5903 5903 5902 5902 5901 5900 5898 5897 5895
5829 5833 5836 5839 5844 5848 5851 5856 5859 5860 5861 5864 5867 5868 5869 5869 5870 5874 5875 5876 5880 5880 5882 5884 5886 5887 5888 5890 5891 5893 5895 5896 5896 5898 5900 5901 5903 5903 5902 5902 5901 5901 5900 5900 5898 5897 5896 5894 5892
5825 5829 5833 5834 5838 5843 5848 5851 5855 5857 5860 5863 5866 5865 5866 5869 5871 5872 5874 5876 5878 5879 5881 5883 5884 5887 5887 5888 5890 5892 5893 5895 5897 5898 5899 5901 5901 5901 5901 5900 5900 5899 5898 5896 5895 5893 5892 5891 5889
5820 5823 5828 5829 5832 5837 5843 5846 5849 5854 5858 5861 5863 5864 5866 5866 5869 5871 5872 5874 5876 5879 5880 5881 5883 5885 5888 5888 5889 5891 5892 5894 5896 5898 5898 5899 5899 5899 5899 5898 5898 5897 5895 5894 5892 5890 5889 5887 5885
5816 5819 5822 5825 5827 5830 5835 5841 5847 5849 5854 5857 5860 5861 5864 5865 5867 5870 5871 5873 5875 5876 5880 5882 5882 5882 5885 5889 5890 5890 5890 5892 5893 5895 5897 5896 5896 5896 5896 5896 5895 5894 5892 5891 5889 5887 5885 5884 5881
5809 5813 5814 5820 5822 5826 5827 5835 5839 5845 5849 5853 5857 5859 5863 5863 5862 5867 5870 5872 5873 5876 5876 5880 5883 5882 5882 5884 5887 5890 5890 5891 5891 5893 5893 5893 5894 5894 5893 5892 5891 5890 5889 5888 5886 5884 5883 5880 5877
5801 5803 5811 5817 5821 5822 5823 5828 5833 5840 5847 5850 5854 5856 5859 5861 5862 5864 5867 5870 5871 5873 5875 5877 5880 5882 5882 5883 5884 5885 5888 5890 5890 5890 5890 5890 5890 5890 5890 5888 5887 5886 5885 5883 5882 5880 5878 5876 5873
5797 5805 5813 5814 5817 5816 5819 5823 5826 5833 5841 5846 5848 5851 5855 5858 5859 5860 5862 5866 5868 5870 5872 5874 5877 5879 5879 5881 5882 5883 5884 5885 5886 5886 5887 5886 5886 5886 5885 5884 5882 5881 5879 5878 5876 5875 5874 5871 5868
5794 5797 5803 5806 5807 5808 5812 5818 5820 5824 5831 5839 5843 5847 5850 5853 5850 5855 5858 5862 5866 5867 5869 5870 5872 5874 5876 5876 5878 5879 5880 5881 5883 5883 5882 5882 5882 5881 5880 5879 5878 5876 5875 5873 5871 5870 5869 5867 5865
5786 5791 5794 5799 5802 5803 5806 5812 5814 5818 5823 5831 5837 5839 5842 5844 5846 5851 5855 5858 5861 5863 5863 5866 5867 5870 5871 5872 5873 5876 5877 5876 5876 5877 5877 5877 5877 5875 5874 5873 5872 5871 5869 5867 5865 5864 5862 5861 5858
5778 5785 5789 5794 5795 5796 5800 5803 5808 5811 5815 5822 5829 5834 5835 5839 5842 5846 5849 5854 5854 5858 5859 5859 5861 5864 5866 5867 5868 5871 5872 5872 5872 5871 5872 5871 5871 5869 5868 5867 5866 5865 5863 5861 5859 5857 5854 5852 5850
5771 5778 5779 5783 5787 5791 5794 5796 5803 5805 5810 5817 5822 5825 5830 5833 5837 5841 5845 5848 5851 5852 5852 5855 5857 5858 5861 5862 5863 5864 5865 5867 5867 5867 5867 5866 5865 5864 5862 5860 5858 5857 5855 5853 5851 5849 5847 5843 5841
5763 5767 5769 5774 5778 5782 5787 5784 5801 5803 5807 5811 5815 5820 5823 5827 5831 5835 5840 5841 5842 5844 5846 5848 5851 5853 5855 5856 5858 5859 5857 5859 5860 5860 5860 5859 5858 5857 5855 5853 5852 5850 5848 5846 5844 5841 5838 5835 5831
5750 5757 5762 5764 5768 5772 5780 5781 5785 5799 5803 5804 5804 5811 5817 5820 5824 5826 5829 5831 5835 5838 5840 5841 5843 5846 5847 5849 5850 5852 5853 5853 5853 5853 5852 5852 5850 5849 5848 5846 5844 5842 5839 5837 5835 5833 5829 5826 5822
5740 5747 5749 5753 5755 5764 5770 5773 5781 5791 5796 5799 5800 5802 5807 5811 5813 5817 5820 5824 5828 5831 5833 5834 5836 5838 5840 5841 5842 5844 5846 5846 5846 5845 5843 5843 5843 5840 5839 5837 5835 5832 5830 5828 5826 5822 5818 5815 5811
5732 5737 5737 5740 5746 5757 5759 5768 5777 5781 5787 5791 5794 5794 5797 5802 5806 5809 5813 5818 5820 5824 5826 5828 5829 5830 5831 5832 5834 5834 5835 5837 5837 5836 5835 5834 5834 5832 5830 5828 5826 5823 5820 5818 5815 5811 5808 5804 5800
5721 5725 5730 5732 5736 5742 5749 5761 5769 5772 5780 5782 5785 5785 5788 5791 5797 5800 5805 5808 5810 5813 5816 5818 5819 5820 5822 5823 5824 5825 5826 5827 5829 5828 5827 5826 5824 5823 5821 5818 5815 5813 5810 5807 5804 5801 5797 5793 5789
5715 5722 5721 5724 5728 5731 5739 5745 5757 5765 5766 5773 5777 5778 5777 5778 5782 5788 5792 5796 5798 5801 5804 5807 5810 5811 5813 5815 5815 5816 5816 5817 5818 5818 5817 5815 5814 5812 5810 5807 5805 5802 5799 5795 5792 5790 5786 5782 5778
5704 5706 5711 5715 5719 5722 5730 5739 5746 5755 5758 5762 5766 5767 5768 5767 5769 5774 5778 5781 5783 5787 5792 5795 5799 5801 5803 5804 5805 5806 5806 5806 5806 5807 5806 5805 5803 5802 5799 5796 5793 5790 5787 5784 5781 5778 5775 5771 5768
5693 5697 5701 5705 5712 5714 5721 5730 5737 5743 5746 5748 5752 5754 5755 5756 5757 5761 5765 5768 5773 5776 5779 5782 5785 5789 5791 5792 5793 5795 5796 5795 5796 5795 5794 5793 5792 5790 5787 5784 5781 5778 5775 5773 5771 5768 5764 5760 5755